Simultaneous Nadir Overpasses (SNOs) Predictions

Prediction of SNOs between AURA and NPP Satellite Orbit:

Table of predicted SNOs for the next 14.0 days since TLE Epoch: 6/26/2015
Index Date (AURA) Time (AURA) Lat,Lon (AURA) SZA (AURA ) Date (NPP) Time (NPP) Lat,Lon (NPP) SZA (NPP ) Distance(km) Time Diff (sec)
1 06/28/2015 16:41:11 -78.46, 0.38 108.86 06/28/2015 16:40:29 -78.45, 0.38 108.83 0.21 42
2 06/28/2015 17:30:26 78.91, 170.48 70.53 06/28/2015 17:31:01 78.91, 170.53 70.49 1.14 35
3 07/01/2015 08:57:34 -78.70, 117.54 109.01 07/01/2015 08:57:16 -78.71, 117.67 109.03 3.11 18
4 07/01/2015 09:46:54 78.94, -73.48 70.66 07/01/2015 09:47:54 78.93, -73.57 70.64 1.90 60
5 07/04/2015 00:24:45 78.23, 63.39 71.83 07/04/2015 00:23:35 78.23, 63.35 71.89 0.95 70
6 07/04/2015 01:13:59 -78.80,-126.03 108.93 07/04/2015 01:14:06 -78.80,-125.95 108.95 1.95 7
7 07/06/2015 16:41:09 78.40,-179.88 71.87 07/06/2015 16:40:24 78.40,-179.90 71.91 0.48 45
8 07/06/2015 17:30:24 -78.92, -9.44 108.84 07/06/2015 17:30:56 -78.93, -9.33 108.89 2.67 32
9 07/09/2015 08:57:31 78.64, -62.75 71.86 07/09/2015 08:57:11 78.65, -62.67 71.85 1.99 20




NCC Satellite Simultaneous Nadir Overpasses (SNOs) Prediction Service
